When you browse on this site, cookies collect data to enhance your experience and personalize the content and advertising you see.
Visit our Privacy Policy to learn more. By continuing to use the site, you agree to this use of cookies and data.
  • In Austria
  • List of Countries
  • For 7 days
  • Water Temperature
  • Satellite Maps
  • Weather Map
  • News
  • Weather Widgets
  • user-avatar
    Login

    Hourly Weather Santiago

    Today, 14 December, Friday

    Time Temperature Precipitation Wind Pressure Humidity
    00:00 +25°C° 0 mm 2 mps 750 mmHg 86%
    01:00 +25°C° 0 mm 2 mps 749 mmHg 87%
    02:00 +25°C° 0 mm 1 mps 749 mmHg 87%
    03:00 +25°C° 0 mm 1 mps 749 mmHg 88%
    04:00 +25°C° 0 mm 1 mps 749 mmHg 89%
    05:00 +25°C° 0 mm 1 mps 749 mmHg 89%
    06:00 +25°C° 0 mm 1 mps 750 mmHg 89%
    07:00 +25°C° 0 mm 1 mps 750 mmHg 89%
    08:00 +27°C° 0 mm 1 mps 750 mmHg 83%
    09:00 +29°C° 0 mm 1 mps 750 mmHg 76%
    10:00 +31°C° 0 mm 2 mps 751 mmHg 69%
    11:00 +32°C° 0 mm 2 mps 750 mmHg 66%
    12:00 +34°C° 0 mm 2 mps 750 mmHg 62%
    13:00 +35°C° 0 mm 2 mps 750 mmHg 59%
    14:00 +34°C° 0.1 mm 2 mps 749 mmHg 60%
    15:00 +34°C° 0.1 mm 2 mps 748 mmHg 61%
    16:00 +34°C° 0.1 mm 2 mps 748 mmHg 63%
    17:00 +31°C° 0.4 mm 2 mps 748 mmHg 71%
    18:00 +29°C° 0.4 mm 2 mps 748 mmHg 79%
    19:00 +27°C° 0.4 mm 2 mps 749 mmHg 87%
    20:00 +27°C° 0.1 mm 1 mps 749 mmHg 88%
    21:00 +27°C° 0.1 mm 1 mps 750 mmHg 89%
    22:00 +26°C° 0.1 mm 1 mps 750 mmHg 90%
    23:00 +26°C° 0 mm 1 mps 750 mmHg 90%

    Tomorrow, 15 December, Saturday

    Time Temperature Precipitation Wind Pressure Humidity
    00:00 +26°C° 0 mm 1 mps 750 mmHg 90%
    01:00 +26°C° 0 mm 1 mps 750 mmHg 90%
    02:00 +25°C° 0 mm 1 mps 749 mmHg 89%
    03:00 +25°C° 0 mm 1 mps 749 mmHg 89%
    04:00 +25°C° 0 mm 1 mps 749 mmHg 89%
    05:00 +25°C° 0 mm 1 mps 749 mmHg 89%
    06:00 +25°C° 0 mm 1 mps 749 mmHg 89%
    07:00 +25°C° 0 mm 1 mps 750 mmHg 89%
    08:00 +27°C° 0 mm 2 mps 750 mmHg 82%
    09:00 +29°C° 0 mm 2 mps 751 mmHg 75%
    10:00 +31°C° 0 mm 2 mps 751 mmHg 68%
    11:00 +32°C° 0 mm 2 mps 751 mmHg 64%
    12:00 +34°C° 0 mm 2 mps 750 mmHg 61%
    13:00 +35°C° 0 mm 3 mps 750 mmHg 57%
    14:00 +35°C° 0 mm 3 mps 749 mmHg 58%
    15:00 +34°C° 0 mm 3 mps 748 mmHg 60%
    16:00 +34°C° 0 mm 3 mps 748 mmHg 61%
    17:00 +31°C° 0 mm 3 mps 748 mmHg 68%
    18:00 +29°C° 0 mm 2 mps 748 mmHg 74%
    19:00 +28°C° 0 mm 2 mps 749 mmHg 81%
    20:00 +27°C° 0 mm 2 mps 749 mmHg 81%
    21:00 +27°C° 0 mm 2 mps 750 mmHg 82%
    22:00 +26°C° 0 mm 2 mps 750 mmHg 82%
    23:00 +26°C° 0 mm 2 mps 750 mmHg 83%

    Day after tomorrow, 16 December, Sunday

    Time Temperature Precipitation Wind Pressure Humidity
    00:00 +26°C° 0 mm 2 mps 750 mmHg 84%
    01:00 +25°C° 0 mm 2 mps 750 mmHg 85%
    02:00 +25°C° 0 mm 2 mps 750 mmHg 86%
    03:00 +25°C° 0 mm 2 mps 749 mmHg 86%
    04:00 +25°C° 0 mm 2 mps 749 mmHg 87%
    05:00 +25°C° 0 mm 2 mps 749 mmHg 88%
    06:00 +25°C° 0 mm 2 mps 750 mmHg 88%
    07:00 +25°C° 0 mm 2 mps 750 mmHg 88%
    08:00 +27°C° 0 mm 3 mps 750 mmHg 81%
    09:00 +29°C° 0 mm 3 mps 751 mmHg 73%
    10:00 +32°C° 0 mm 4 mps 751 mmHg 65%
    11:00 +32°C° 0 mm 4 mps 751 mmHg 63%
    12:00 +33°C° 0 mm 4 mps 750 mmHg 61%
    13:00 +34°C° 0 mm 5 mps 750 mmHg 59%
    14:00 +34°C° 0 mm 5 mps 749 mmHg 60%
    15:00 +33°C° 0 mm 5 mps 748 mmHg 61%
    16:00 +33°C° 0 mm 4 mps 748 mmHg 62%
    17:00 +30°C° 0 mm 4 mps 748 mmHg 68%
    18:00 +29°C° 0 mm 3 mps 748 mmHg 74%
    19:00 +27°C° 0 mm 3 mps 749 mmHg 80%
    20:00 +27°C° 0 mm 3 mps 749 mmHg 81%
    21:00 +26°C° 0 mm 3 mps 750 mmHg 83%
    22:00 +26°C° 0 mm 2 mps 750 mmHg 84%
    23:00 +26°C° 0 mm 2 mps 750 mmHg 85%

    17 December, Monday

    Time Temperature Precipitation Wind Pressure Humidity
    00:00 +25°C° 0 mm 2 mps 750 mmHg 86%
    01:00 +25°C° 0 mm 2 mps 750 mmHg 87%
    02:00 +25°C° 0 mm 2 mps 749 mmHg 87%
    03:00 +25°C° 0 mm 2 mps 749 mmHg 88%
    04:00 +25°C° 0 mm 2 mps 749 mmHg 89%
    05:00 +25°C° 0 mm 2 mps 749 mmHg 89%
    06:00 +25°C° 0 mm 2 mps 749 mmHg 89%
    07:00 +25°C° 0 mm 2 mps 750 mmHg 89%
    08:00 +26°C° 0 mm 2 mps 750 mmHg 82%
    09:00 +28°C° 0 mm 3 mps 751 mmHg 74%
    10:00 +30°C° 0 mm 3 mps 751 mmHg 67%
    11:00 +31°C° 0 mm 3 mps 751 mmHg 64%
    12:00 +33°C° 0 mm 4 mps 750 mmHg 61%
    13:00 +34°C° 0 mm 4 mps 749 mmHg 58%
    14:00 +33°C° 0 mm 4 mps 749 mmHg 59%
    15:00 +33°C° 0 mm 4 mps 748 mmHg 61%
    16:00 +33°C° 0 mm 4 mps 748 mmHg 62%
    17:00 +30°C° 0 mm 3 mps 748 mmHg 67%
    18:00 +28°C° 0 mm 3 mps 748 mmHg 72%
    19:00 +27°C° 0 mm 2 mps 749 mmHg 77%
    20:00 +26°C° 0 mm 2 mps 749 mmHg 78%
    21:00 +26°C° 0 mm 2 mps 750 mmHg 80%
    22:00 +26°C° 0 mm 2 mps 750 mmHg 81%
    23:00 +25°C° 0 mm 2 mps 750 mmHg 82%

    18 December, Tuesday

    Time Temperature Precipitation Wind Pressure Humidity
    00:00 +25°C° 0 mm 2 mps 750 mmHg 83%
    01:00 +25°C° 0 mm 2 mps 749 mmHg 84%
    02:00 +25°C° 0 mm 2 mps 749 mmHg 85%
    03:00 +24°C° 0 mm 1 mps 749 mmHg 85%
    04:00 +24°C° 0 mm 1 mps 748 mmHg 86%
    05:00 +24°C° 0 mm 1 mps 749 mmHg 86%
    06:00 +24°C° 0 mm 2 mps 749 mmHg 86%
    07:00 +24°C° 0 mm 2 mps 750 mmHg 87%
    08:00 +26°C° 0 mm 2 mps 750 mmHg 80%
    09:00 +28°C° 0 mm 2 mps 750 mmHg 73%
    10:00 +30°C° 0 mm 2 mps 751 mmHg 66%
    11:00 +31°C° 0 mm 2 mps 750 mmHg 63%
    12:00 +33°C° 0 mm 3 mps 749 mmHg 60%
    13:00 +34°C° 0 mm 3 mps 749 mmHg 56%
    14:00 +34°C° 0 mm 3 mps 748 mmHg 59%
    15:00 +33°C° 0 mm 3 mps 748 mmHg 61%
    16:00 +33°C° 0 mm 3 mps 747 mmHg 63%
    17:00 +30°C° 0.1 mm 3 mps 748 mmHg 68%
    18:00 +29°C° 0.1 mm 2 mps 748 mmHg 74%
    19:00 +27°C° 0.1 mm 2 mps 748 mmHg 80%
    20:00 +27°C° 0 mm 2 mps 749 mmHg 81%
    21:00 +26°C° 0 mm 2 mps 749 mmHg 83%
    22:00 +26°C° 0 mm 1 mps 750 mmHg 84%
    23:00 +25°C° 0 mm 1 mps 749 mmHg 85%

    19 December, Wednesday

    Time Temperature Precipitation Wind Pressure Humidity
    00:00 +25°C° 0 mm 1 mps 749 mmHg 86%
    01:00 +25°C° 0 mm 1 mps 749 mmHg 86%
    02:00 +25°C° 0 mm 1 mps 749 mmHg 87%
    03:00 +25°C° 0 mm 1 mps 748 mmHg 88%
    04:00 +25°C° 0 mm 1 mps 748 mmHg 88%
    05:00 +25°C° 0 mm 1 mps 749 mmHg 88%
    06:00 +25°C° 0 mm 1 mps 749 mmHg 88%
    07:00 +25°C° 0 mm 1 mps 750 mmHg 88%
    08:00 +27°C° 0 mm 1 mps 750 mmHg 81%
    09:00 +28°C° 0 mm 1 mps 750 mmHg 74%
    10:00 +30°C° 0 mm 2 mps 751 mmHg 67%
    11:00 +31°C° 0 mm 2 mps 750 mmHg 64%
    12:00 +32°C° 0 mm 2 mps 749 mmHg 61%
    13:00 +34°C° 0 mm 2 mps 749 mmHg 57%
    14:00 +34°C° 0.3 mm 2 mps 748 mmHg 61%
    15:00 +32°C° 0.3 mm 2 mps 748 mmHg 64%
    16:00 +33°C° 0.3 mm 3 mps 747 mmHg 67%
    17:00 +30°C° 0.6 mm 2 mps 747 mmHg 73%
    18:00 +29°C° 0.6 mm 2 mps 748 mmHg 79%
    19:00 +27°C° 0.6 mm 2 mps 748 mmHg 84%
    20:00 +27°C° 0.1 mm 2 mps 749 mmHg 85%
    21:00 +26°C° 0.1 mm 1 mps 749 mmHg 85%
    22:00 +26°C° 0.1 mm 1 mps 749 mmHg 86%
    23:00 +26°C° 0 mm 1 mps 749 mmHg 86%
    Show more